• MPC Preparation (Info)

  • MPEC 2014-P24 : 2014 ON339

    The following Minor Planet Electronic Circular may be linked-to from your own Web pages, but must not otherwise be redistributed electronically.

    A form allowing access to any MPEC is at the bottom of this page.


    Read MPEC 2014-P23 Read MPEC 2014-P25


    M.P.E.C. 2014-P24                                Issued 2014 Aug. 4, 15:48 UT
    
         The Minor Planet Electronic Circulars contain information on unusual
             minor planets and routine data on comets.  They are published
       on behalf of Commission 20 of the International Astronomical Union by the
              Minor Planet Center, Smithsonian Astrophysical Observatory,
                              Cambridge, MA 02138, U.S.A.
    
                 Prepared using the Tamkin Foundation Computer Network
    
                                  MPC@CFA.HARVARD.EDU
                URL https://www.minorplanetcenter.net/    ISSN 1523-6714
    
                                      2014 ON339
    
    Observations:
         K14OX9N* C2014 07 28.49906 21 46 58.415-14 27 12.37         21.5 wLEP024F51
         K14OX9N  C2014 07 28.51034 21 47 00.039-14 27 27.15         21.4 wLEP024F51
         K14OX9N  C2014 07 28.52163 21 47 01.632-14 27 42.13         21.5 wLEP024F51
         K14OX9N  C2014 07 28.53289 21 47 03.228-14 27 56.62         21.6 wLEP024F51
         K14OX9N =C2014 07 29.50550 21 49 35.79 -14 49 29.3          20.9  tEP024568
         K14OX9N =C2014 07 29.50676 21 49 35.97 -14 49 31.0          20.8  tEP024568
         K14OX9N =C2014 07 29.50801 21 49 36.15 -14 49 32.8          20.9  tEP024568
         K14OX9N FC2014 08 03.27789 22 02 08.11 -16 39 36.7          21.4 VqEP024H21
         K14OX9N HC2014 08 03.29062 22 02 09.91 -16 39 55.3                qEP024H21
         K14OX9N KC2014 08 04.30405 22 04 50.67 -17 03 49.4          21.2 RoEP024291
         K14OX9N KC2014 08 04.30556 22 04 50.91 -17 03 51.4          19.9 RoEP024291
         K14OX9N KC2014 08 04.30705 22 04 51.08 -17 03 53.6          20.5 RoEP024291
    
    Observer details:
    291 LPL/Spacewatch II.  Observer R. A. Mastaler.  1.8-m f/2.7 reflector + CCD.
    568 Mauna Kea.  Observers R. J. Wainscoat, L. Wells.  Measurers P. Veres,
        R. J. Wainscoat.  3.6-m Canada-France-Hawaii Telescope + CCD.
    F51 Pan-STARRS 1, Haleakala.  Observers N. Primak, A. Schultz, T. Goggia,
        M. Willman.  1.8-m Ritchey-Chretien + CCD.
    H21 Astronomical Research Observatory, Westfield.  Observer R. Holmes.
        Measurers L. Buzzi, S. Foglia, T. Vorobjov, T. Linder.  0.61-m f/4.0
        astrograph + CCD.
    
    Orbital elements:
    2014 ON339                                               Earth MOID = 0.2311 AU
    Epoch 2014 May 23.0 TT = JDT 2456800.5                  MPC
    M 337.32706              (2000.0)            P               Q
    n   0.27356446     Peri.  195.60639     +0.79599552     +0.59655040
    a   2.3501537      Node   127.31242     -0.54064181     +0.77688160
    e   0.4713779      Incl.    7.40904     -0.27220868     +0.20145121
    P   3.60           H   22.5           G   0.15           U   7
    Residuals in seconds of arc
    140728 F51  0.2-  0.0     140729 568  0.2-  0.1+    140803 H21  0.3-  0.6-
    140728 F51  0.1+  0.0     140729 568  0.2-  0.1+    140804 291  0.0   0.0
    140728 F51  0.0   0.2-    140729 568  0.2-  0.0     140804 291  0.3+  0.1+
    140728 F51  0.1-  0.1+    140803 H21  0.5+  0.0     140804 291  0.4-  0.1+
    
    Ephemeris:
    2014 ON339               a,e,i = 2.35, 0.47, 7                   q = 1.2423
    Date    TT    R. A. (2000) Decl.     Delta      r     Elong.  Phase     V
    2014 07 05    20 50 07.2 -08 29 02   0.3304  1.3109   149.0    23.6    21.8
    ...
    2014 07 20    21 25 16.7 -11 38 07   0.2710  1.2698   156.8    18.4    21.1
    ...
    2014 07 28    21 45 40.5 -14 15 57   0.2508  1.2551   160.8    15.4    20.8
    ...
    2014 08 03    22 01 23.8 -16 32 33   0.2412  1.2477   163.3    13.6    20.7
    2014 08 04    22 04 01.8 -16 56 09   0.2401  1.2467   163.6    13.3    20.7
    2014 08 05    22 06 39.6 -17 19 52   0.2391  1.2459   163.9    13.1    20.6
    ...
    2014 08 11    22 22 18.3 -19 41 56   0.2357  1.2427   165.0    12.2    20.6
    ...
    2014 08 19    22 42 06.0 -22 37 25   0.2383  1.2435   164.7    12.4    20.6
    ...
    2014 09 03    23 12 49.9 -26 19 30   0.2637  1.2604   160.4    15.6    21.0
    
    A. U. Tomatic                (C) Copyright 2014 MPC           M.P.E.C. 2014-P24
    

    Read MPEC 2014-P23 Read MPEC 2014-P25


    MPEC number:

    Enter an MPEC number in one of the following forms:

    • 1997-B01 (the full form)
    • J97B01 (the packed version of the full form)
    • B01 (the abbreviated form)